Tiempo atmosférico en la estación meteorológica de El Paso, Santa Cruz de Tenerife (844 m.)



Fecha
DESCASC
Temp. máxima en grados centígrados (hora)
DESCASC
Temp. mínima en grados centígrados (hora)
DESCASC
Temp. media en grados centígrados
DESCASC
Racha de viento máxima en m/sg (hora)
DESCASC
Velocidad máxima media en intervalos de 10 minutos(hora)
DESCASC
Precipitaciones diarias en mm
DESCASC
Precipitaciones de 00:00 a 06:00 en mm
DESCASC
Precipitaciones de 06:00 a 12:00 en mm
DESCASC
Precipitaciones de 12:00 a 18:00 en mm
DESCASC
Precipitaciones de 18:00 a 24:00 en mm
DESCASC
19-09-2019 23.6 (16:20) 12.5 (05:20) 18.1 8.33 (15:30) 3.89 (13:40) 0 0 0 0 0
18-09-2019 23.7 (17:30) 12.1 (08:00) 17.9 6.67 (13:20) 3.89 (14:50) 0 0 0 0 0
17-09-2019 26.1 (10:50) 16 (00:00) 21.1 6.39 (15:00) 3.89 (13:00) 0 0 0 0 0
16-09-2019 29.8 (10:30) 16.3 (00:00) 23 6.39 (16:20) 4.17 (16:20) 0 0 0 0 0
15-09-2019 25.9 (17:20) 15.4 (00:00) 20.6 8.61 (17:30) 3.89 (00:10) 0 0 0 0 0
14-09-2019 24.6 (16:30) 13 (00:00) 18.8 12.5 (14:50) 7.22 (14:10) 0 0 0 0 0
13-09-2019 23.3 (15:10) 17.1 (00:00) 20.2 16.94 (03:30) 8.89 (04:00) 0 0 0 0 0
12-09-2019 22.8 (11:50) 12.6 (00:00) 17.7 13.89 (13:00) 8.61 (15:10) 0 0 0 0 0
11-09-2019 24.2 (14:10) 15.8 (00:00) 20 12.5 (15:40) 7.78 (15:30) 0 0 0 0 0
10-09-2019 28 (17:10) 17.8 (08:10) 22.9 8.33 (17:30) 5 (14:30) -- 0 0 -- 0
09-09-2019 27.3 (15:40) 17.3 (00:50) 22.3 12.5 (00:50) 8.33 (00:50) 0 0 0 0 0
08-09-2019 22.7 (17:00) 12.2 (00:00) 17.5 14.17 (21:30) 8.61 (21:20) 0 0 0 0 0
07-09-2019 22.2 (13:10) 13.4 (00:00) 17.8 7.5 (16:10) 4.17 (13:50) 0 0 0 0 0
06-09-2019 23.1 (15:30) 13.2 (00:00) 18.2 9.17 (15:30) 4.72 (15:50) 0 0 0 0 0
05-09-2019 22.3 (15:20) 11.9 (00:00) 17.1 7.78 (15:20) 4.17 (15:20) 0 0 0 0 0
04-09-2019 22.2 (12:30) 12 (00:00) 17.1 6.67 (10:30) 4.17 (11:00) 0 0 0 0 0
03-09-2019 21.7 (11:50) 11.7 (00:00) 16.7 8.61 (18:20) 4.72 (18:20) 0 0 0 0 0
02-09-2019 22.5 (12:10) 14.3 (00:00) 18.4 10.28 (14:30) 6.67 (14:30) 0 0 0 0 0
01-09-2019 27.6 (14:00) 16.2 (00:00) 21.9 8.33 (12:30) 4.44 (13:10) 0 0 0 0 0
31-08-2019 31.9 (15:10) 21.3 (00:00) 26.6 6.94 (15:20) 4.72 (15:20) 0 0 0 0 0
30-08-2019 30.8 (16:50) 19.9 (00:00) 25.3 6.94 (15:30) 4.17 (14:10) 0 0 0 0 0
29-08-2019 31.5 (15:30) 18 (00:00) 24.8 13.33 (13:30) 7.78 (13:30) 0 0 0 0 0
28-08-2019 27.5 (10:00) 18.5 (00:00) 23 6.39 (16:30) 4.44 (16:30) 0 0 0 0 0
27-08-2019 29.8 (10:20) 19.7 (00:00) 24.8 6.11 (15:10) 4.17 (14:00) 0 0 0 0 0
26-08-2019 33.5 (12:40) 23.6 (00:00) 28.6 13.33 (03:30) 8.61 (03:20) 0 0 0 0 0
25-08-2019 36.8 (15:50) 25.5 (00:00) 31.1 17.78 (07:10) 11.67 (07:10) 0 0 0 0 0
24-08-2019 37.7 (15:20) 25.6 (00:00) 31.7 15 (08:00) 9.17 (08:00) 0 0 0 0 0
23-08-2019 34.9 (14:10) 21.2 (00:00) 28.1 12.78 (12:30) 6.67 (12:30) 0 0 0 0 0
22-08-2019 31.4 (14:10) 23 (00:00) 27.2 20 (02:40) 11.11 (00:40) 0 0 0 0 0
21-08-2019 26.2 (16:00) 18.3 (00:00) 22.3 23.33 (22:30) 11.11 (23:50) 0 0 0 0 0

Gráficas

Temp. máximas Temp. mínimas Temp. medias Precipitaciones Rachas de viento máximas Velocidades máximas media en intervalos de 10 minutos

Datos horarios

Fecha y hora oficial Temperatura (ºC) Velocidad del viento (km/h) Dirección del viento Racha (km/h) Dirección de racha Precipitación (mm) Presión (hPa) Tendencia (hPa) Humedad (%)
2019-09-19 23:00:00 16.8 3 Nordeste 7 Nordeste 0 -- -- 89
2019-09-19 22:00:00 18 2 Noroeste 5 Noroeste 0 -- -- 85
2019-09-19 21:00:00 18.8 3 Oeste 13 Oeste 0 -- -- 84
2019-09-19 20:00:00 19.8 3 Oeste 13 Oeste 0 -- -- 80
2019-09-19 19:00:00 20.6 5 Noroeste 19 Oeste 0 -- -- 76
2019-09-19 18:00:00 22.4 10 Oeste 22 Noroeste 0 -- -- 70
2019-09-19 17:00:00 23.3 13 Oeste 23 Oeste 0 -- -- 66
2019-09-19 16:00:00 23.2 11 Oeste 30 Oeste 0 -- -- 68
2019-09-19 15:00:00 22.4 11 Oeste 21 Oeste 0 -- -- 70
2019-09-19 14:00:00 22.2 12 Oeste 22 Oeste 0 -- -- 70
2019-09-19 13:00:00 22.5 13 Oeste 23 Oeste 0 -- -- 66
2019-09-19 12:00:00 23 11 Noroeste 21 Oeste 0 -- -- 62
2019-09-19 11:00:00 22.8 8 Oeste 13 Oeste 0 -- -- 56
2019-09-19 10:00:00 19.8 7 Oeste 10 Sudoeste 0 -- -- 61
2019-09-19 09:00:00 14 2 Sudoeste 8 Este 0 -- -- 67
2019-09-19 08:00:00 12.6 5 Este 9 Este 0 -- -- 74
2019-09-19 07:00:00 12.9 2 Este 8 Este 0 -- -- 79
2019-09-19 06:00:00 12.7 0 Calma 8 Este 0 -- -- 69
2019-09-19 05:00:00 12.7 6 Este 8 Este 0 -- -- 81
2019-09-19 04:00:00 13.4 3 Sudeste 7 Este 0 -- -- 86
2019-09-19 03:00:00 13.7 0 Calma 4 Norte 0 -- -- 81
2019-09-19 02:00:00 14.2 3 Sudeste 6 Nordeste 0 -- -- 83
2019-09-19 01:00:00 14.9 3 Sudeste 7 Sudoeste 0 -- -- 79
2019-09-19 00:00:00 15.5 3 Este 7 Este 0 -- -- 81
2019-09-18 23:00:00 16.4 5 Este 8 Este 0 -- -- 84
2019-09-18 22:00:00 17.7 0 Calma 9 Oeste 0 -- -- 84
2019-09-18 21:00:00 19.1 0 Calma 9 Oeste 0 -- -- 77
2019-09-18 20:00:00 20.9 3 Oeste 17 Oeste 0 -- -- 72
2019-09-18 19:00:00 22.8 11 Oeste 20 Oeste 0 -- -- 64
2019-09-18 18:00:00 23.4 11 Oeste 23 Oeste 0 -- -- 60
2019-09-18 17:00:00 23.5 10 Oeste 22 Oeste 0 -- -- 61
2019-09-18 16:00:00 22.7 10 Oeste 22 Oeste 0 -- -- 65
2019-09-18 15:00:00 22.9 14 Oeste 22 Oeste 0 -- -- 65
2019-09-18 14:00:00 22.5 11 Oeste 24 Oeste 0 -- -- 66
2019-09-18 13:00:00 22.3 12 Oeste 19 Oeste 0 -- -- 66
2019-09-18 12:00:00 22.4 10 Oeste 16 Oeste 0 -- -- 63
2019-09-18 11:00:00 21 9 Oeste 15 Oeste 0 -- -- 61
2019-09-18 10:00:00 18 2 Nordeste 9 Oeste 0 -- -- 74
2019-09-18 09:00:00 12.9 6 Este 9 Este 0 -- -- 71
2019-09-18 08:00:00 12.1 4 Este 7 Este 0 -- -- 56
2019-09-18 07:00:00 12.9 4 Este 6 Este 0 -- -- 57
2019-09-18 06:00:00 12.9 4 Este 9 Este 0 -- -- 42
2019-09-18 05:00:00 13.5 0 Calma 11 Sudoeste 0 -- -- 41
2019-09-18 04:00:00 14.2 4 Sur 13 Este 0 -- -- 38
2019-09-18 03:00:00 14.7 4 Sudeste 10 Oeste 0 -- -- 54
2019-09-18 02:00:00 14.8 8 Sudoeste 12 Oeste 0 -- -- 46
2019-09-18 01:00:00 14.4 4 Sudeste 7 Este 0 -- -- 51
2019-09-18 00:00:00 16 0 Calma 6 Oeste 0 -- -- 68
2019-09-17 23:00:00 17.5 4 Oeste 8 Este 0 -- -- 67
2019-09-17 22:00:00 17.9 4 Este 8 Este 0 -- -- 48
2019-09-17 21:00:00 19.8 0 Calma 12 Oeste 0 -- -- 77
2019-09-17 20:00:00 22 2 Oeste 17 Oeste 0 -- -- 70
2019-09-15 17:00:00 -- -- -- -- -- -- -- -- --
2019-09-15 16:00:00 25.2 10 Oeste 20 Oeste 0 -- -- 53
2019-09-15 15:00:00 25.1 10 Oeste 22 Oeste 0 -- -- 53
2019-09-15 14:00:00 25.3 13 Oeste 22 Oeste 0 -- -- 49
2019-09-15 13:00:00 25.1 11 Oeste 20 Oeste 0 -- -- 49
2019-09-15 12:00:00 24.8 11 Oeste 19 Oeste 0 -- -- 50
2019-09-15 11:00:00 24.1 7 Oeste 14 Oeste 0 -- -- 45
2019-09-15 10:00:00 22.9 6 Oeste 11 Oeste 0 -- -- 43
2019-09-15 09:00:00 20.1 5 Este 15 Sudeste 0 -- -- 39
2019-09-15 08:00:00 19.1 12 Sudeste 21 Sudeste 0 -- -- 42
2019-09-15 07:00:00 19.2 8 Sur 23 Este 0 -- -- 43
2019-09-15 06:00:00 17.4 6 Este 21 Sudeste 0 -- -- 48
2019-09-15 05:00:00 18.8 11 Sudeste 20 Este 0 -- -- 45
2019-09-15 04:00:00 15.5 5 Este 14 Este 0 -- -- 58
2019-09-15 03:00:00 15.8 5 Este 16 Este 0 -- -- 63
2019-09-15 02:00:00 17.2 8 Sudeste 17 Sudeste 0 -- -- 50
2019-09-15 01:00:00 17.7 4 Este 22 Sudeste 0 -- -- 60
2019-09-15 00:00:00 18.3 14 Sudeste 23 Este 0 -- -- 53
2019-09-14 23:00:00 18.6 12 Sudeste 25 Este 0 -- -- 56
2019-09-14 22:00:00 18.9 15 Sudeste 30 Este 0 -- -- 53
2019-09-14 21:00:00 18.9 14 Sudeste 26 Sudeste 0 -- -- 57
2019-09-14 20:00:00 21 10 Oeste 21 Oeste 0 -- -- 70
2019-09-14 19:00:00 22.3 13 Oeste 24 Sudeste 0 -- -- 66
2019-09-14 18:00:00 22.5 16 Sudeste 39 Sudeste 0 -- -- 56
2019-09-14 17:00:00 23.9 17 Oeste 35 Oeste 0 -- -- 62
2019-09-14 16:00:00 24.4 19 Sudeste 38 Este 0 -- -- 45
2019-09-14 15:00:00 23.3 24 Este 45 Este 0 -- -- 50
2019-09-14 14:00:00 23.5 24 Este 39 Sudeste 0 -- -- 50
2019-09-14 13:00:00 23.2 21 Sudeste 41 Este 0 -- -- 57
2019-09-14 12:00:00 22.9 19 Este 37 Este 0 -- -- 56
2019-09-14 11:00:00 21.3 15 Oeste 31 Sudeste 0 -- -- 65
2019-09-14 10:00:00 21 7 Este 28 Este 0 -- -- 46
2019-09-14 09:00:00 18.2 11 Este 35 Este 0 -- -- 45
2019-09-14 08:00:00 16.3 12 Este 30 Este 0 -- -- 59
2019-09-14 07:00:00 16.8 13 Este 32 Sudeste 0 -- -- 51
2019-09-14 06:00:00 15.3 17 Este 31 Este 0 -- -- 49
2019-09-14 05:00:00 -- -- -- -- -- -- -- -- --
2019-09-14 04:00:00 13.4 4 Este 10 Nordeste 0 -- -- 75
2019-09-14 03:00:00 13.7 5 Este 9 Nordeste 0 -- -- 83
2019-09-14 02:00:00 14.3 4 Nordeste 10 Este 0 -- -- 80
2019-09-14 01:00:00 16.1 5 Oeste 21 Sudeste 0 -- -- 76
2019-09-14 00:00:00 17.1 2 Norte 38 Este 0 -- -- 66
2019-09-13 23:00:00 18.8 18 Este 42 Este 0 -- -- 44
2019-09-13 22:00:00 19.1 25 Este 54 Este 0 -- -- 37
2019-09-13 21:00:00 19.1 25 Este 55 Este 0 -- -- 38
2019-09-13 20:00:00 19.6 24 Este 48 Este 0 -- -- 41
2019-09-13 19:00:00 21 23 Este 44 Este 0 -- -- 42
2019-09-13 18:00:00 21.7 18 Sudeste 41 Sudeste 0 -- -- 65
2019-09-13 17:00:00 21.4 21 Sudeste 36 Sudeste 0 -- -- 68
2019-09-13 16:00:00 22.7 9 Este 23 Oeste 0 -- -- 63
2019-09-13 15:00:00 23.1 10 Sur 31 Este 0 -- -- 60
2019-09-13 14:00:00 21.9 15 Sudeste 36 Este 0 -- -- 65
2019-09-13 13:00:00 20.5 20 Sudeste 51 Este 0 -- -- 71
2019-09-13 12:00:00 21 23 Este 41 Este 0 -- -- 67
2019-09-13 11:00:00 22.6 13 Sudeste 32 Este 0 -- -- 53
2019-09-13 10:00:00 21.9 8 Noroeste 28 Nordeste 0 -- -- 45
2019-09-13 09:00:00 18.8 9 Oeste 29 Nordeste 0 -- -- 53
2019-09-13 08:00:00 19.7 20 Este 46 Este 0 -- -- 41
2019-09-13 07:00:00 19.7 27 Este 58 Este 0 -- -- 40
2019-09-13 06:00:00 19.6 30 Este 53 Este 0 -- -- 41
2019-09-13 05:00:00 19.8 28 Este 58 Este 0 -- -- 41
2019-09-13 04:00:00 20.1 32 Este 61 Este 0 -- -- 40
2019-09-13 03:00:00 19.7 23 Este 50 Este 0 -- -- 41
2019-09-13 02:00:00 19.7 19 Este 51 Este 0 -- -- 40
2019-09-13 01:00:00 19.3 27 Este 59 Este 0 -- -- 41
2019-09-13 00:00:00 18.6 28 Este 49 Este 0 -- -- 35
2019-09-12 23:00:00 15.9 4 Norte 10 Nordeste 0 -- -- 80
2019-09-12 22:00:00 17.7 2 Este 39 Este 0 -- -- 74
2019-09-12 21:00:00 19.7 25 Este 42 Este 0 -- -- 29
2019-09-12 20:00:00 19.8 9 Oeste 34 Este 0 -- -- 72
2019-09-12 19:00:00 21.2 6 Oeste 20 Oeste 0 -- -- 68
2019-09-12 18:00:00 21.9 10 Oeste 19 Oeste 0 -- -- 64
2019-09-12 17:00:00 21.4 13 Sudeste 37 Este 0 -- -- 60
2019-09-12 16:00:00 21.9 24 Sudeste 48 Sudeste 0 -- -- 59
2019-09-12 15:00:00 20.8 28 Sudeste 46 Este 0 -- -- 64
2019-09-12 14:00:00 21.4 9 Sudoeste 50 Sudeste 0 -- -- 67
2019-09-12 13:00:00 20.7 30 Este 50 Este 0 -- -- 61
2019-09-12 12:00:00 21.9 18 Este 40 Este 0 -- -- 59
2019-09-12 11:00:00 20.4 21 Sudeste 36 Este 0 -- -- 61
2019-09-12 10:00:00 18.1 13 Oeste 19 Oeste 0 -- -- 77
2019-09-12 09:00:00 13.9 3 Este 11 Este 0 -- -- 92
2019-09-12 08:00:00 13.2 3 Este 10 Oeste 0 -- -- 90
2019-09-12 07:00:00 12.6 3 Oeste 9 Oeste 0 -- -- 89
2019-09-12 06:00:00 13 3 Sudeste 8 Este 0 -- -- 90
2019-09-12 05:00:00 13 2 Nordeste 8 Noroeste 0 -- -- 89
2019-09-12 04:00:00 14.3 4 Este 7 Este 0 -- -- 91
2019-09-12 03:00:00 15.7 3 Oeste 20 Oeste 0 -- -- 87
2019-09-12 02:00:00 16.4 10 Este 29 Sudeste 0 -- -- 74
2019-09-12 01:00:00 16 2 Nordeste 8 Oeste 0 -- -- 88
2019-09-12 00:00:00 15.8 3 Este 7 Sur 0 -- -- 88
2019-09-11 23:00:00 16.8 4 Oeste 9 Oeste 0 -- -- 84
2019-09-11 22:00:00 17.7 6 Oeste 10 Oeste 0 -- -- 81
2019-09-11 21:00:00 19 6 Oeste 10 Oeste 0 -- -- 74
2019-09-11 20:00:00 21 4 Noroeste 16 Oeste 0 -- -- 68
2019-09-11 19:00:00 21.5 12 Noroeste 35 Sudeste 0 -- -- 67
2019-09-11 18:00:00 21.6 22 Este 41 Este 0 -- -- 60
2019-09-11 17:00:00 24 11 Sudeste 32 Sudeste 0 -- -- 50
2019-09-11 16:00:00 23.4 18 Este 45 Este 0 -- -- 52
2019-09-11 15:00:00 24.2 21 Este 35 Este 0 -- -- 52
2019-09-11 14:00:00 24.1 12 Este 30 Este 0 -- -- 50
2019-09-11 13:00:00 23.4 10 Este 35 Este 0 -- -- 51
2019-09-11 12:00:00 21.6 17 Este 40 Este 0 -- -- 57
2019-09-11 11:00:00 20.3 19 Sudeste 37 Sudeste 0 -- -- 65
2019-09-11 10:00:00 19.8 16 Este 28 Este 0 -- -- 57
2019-09-11 09:00:00 16.7 2 Oeste 13 Sudeste 0 -- -- 65
2019-09-11 08:00:00 16.7 6 Este 16 Este 0 -- -- 64
2019-09-11 07:00:00 17.9 10 Este 40 Sudeste 0 -- -- 54
2019-09-11 06:00:00 16.8 3 Sur 20 Sudeste 0 -- -- 54
2019-09-11 05:00:00 17.3 12 Este 19 Este 0 -- -- 60
2019-09-11 04:00:00 16.5 4 Sudeste 7 Este 0 -- -- 51
2019-09-11 03:00:00 17.4 5 Este 14 Nordeste 0 -- -- 49
2019-09-11 02:00:00 17.5 5 Este 9 Este 0 -- -- 54
2019-09-11 01:00:00 18.2 3 Sudeste 9 Este 0 -- -- 51
2019-09-11 00:00:00 19 5 Este 9 Este 0 -- -- 57
2019-09-10 23:00:00 19.8 2 Este 9 Este 0 -- -- 58
2019-09-10 22:00:00 20.8 2 Nordeste 8 Oeste 0 -- -- 60
2019-09-10 21:00:00 21.5 5 Este 9 Noroeste 0 -- -- 70
2019-09-10 20:00:00 24.2 4 Sudoeste 16 Oeste 0 -- -- 62
2019-09-10 19:00:00 26.8 11 Oeste 15 Oeste 0 -- -- 47
2019-09-10 18:00:00 26.4 6 Oeste 30 Oeste -- -- -- 46
2019-09-10 17:00:00 27.6 12 Oeste 21 Sudoeste 0 -- -- 33
2019-09-10 16:00:00 26.4 13 Oeste 24 Oeste 0 -- -- 50
2019-09-10 15:00:00 25.9 9 Oeste 28 Oeste 0 -- -- 51
2019-09-10 14:00:00 26.8 12 Oeste 19 Oeste 0 -- -- 43
2019-09-10 13:00:00 25.4 11 Oeste 20 Oeste 0 -- -- 51
2019-09-10 12:00:00 25.9 10 Oeste 18 Oeste 0 -- -- 47
2019-09-10 11:00:00 26.9 10 Oeste 15 Oeste 0 -- -- 41
2019-09-10 10:00:00 25.5 6 Oeste 9 Sudeste 0 -- -- 30
2019-09-10 09:00:00 19.8 5 Sudeste 9 Sudeste 0 -- -- 37
2019-09-10 08:00:00 17.9 5 Este 10 Sudeste 0 -- -- 39
2019-09-10 07:00:00 18.5 6 Este 17 Sudeste 0 -- -- 37
2019-09-10 06:00:00 19.1 6 Este 12 Este 0 -- -- 37
2019-09-10 05:00:00 19.7 5 Este 11 Sudeste 0 -- -- 36
2019-09-10 04:00:00 19.8 5 Este 10 Sudeste 0 -- -- 36
2019-09-10 03:00:00 21.2 8 Sudeste 14 Sudeste 0 -- -- 33
2019-09-10 02:00:00 21.2 3 Este 19 Este 0 -- -- 33
2019-09-10 01:00:00 22.1 10 Este 22 Este 0 -- -- 32
2019-09-10 00:00:00 22.5 14 Este 25 Este 0 -- -- 31
2019-09-09 23:00:00 22.9 15 Este 29 Este 0 -- -- 31
2019-09-09 22:00:00 22.9 13 Este 25 Este 0 -- -- 31
2019-09-09 21:00:00 23.1 13 Este 38 Este 0 -- -- 31
2019-09-09 20:00:00 24.4 18 Este 36 Este 0 -- -- 30
2019-09-09 19:00:00 25.6 19 Este 39 Este 0 -- -- 29
2019-09-09 18:00:00 26.2 22 Este 40 Este 0 -- -- 29
2019-09-09 17:00:00 26.7 20 Este 42 Este 0 -- -- 30
2019-09-09 16:00:00 27.2 21 Este 41 Este 0 -- -- 29
2019-09-09 15:00:00 26.6 22 Este 41 Este 0 -- -- 33
2019-09-09 14:00:00 26.4 24 Este 44 Este 0 -- -- 34
2019-09-09 13:00:00 26.1 23 Este 44 Este 0 -- -- 35
2019-09-09 12:00:00 25.4 27 Este 45 Este 0 -- -- 37
2019-09-09 11:00:00 24.8 26 Este 44 Este 0 -- -- 36
2019-09-09 10:00:00 23.3 22 Este 41 Este 0 -- -- 41
2019-09-09 09:00:00 22 25 Este 42 Este 0 -- -- 43
2019-09-09 08:00:00 21 19 Este 43 Este 0 -- -- 45
2019-09-09 07:00:00 20.9 16 Este 37 Este 0 -- -- 46
2019-09-09 06:00:00 20.3 19 Este 37 Este 0 -- -- 46
2019-09-09 05:00:00 20.5 17 Este 33 Este 0 -- -- 44
2019-09-09 04:00:00 17.8 9 Este 35 Este 0 -- -- 60
2019-09-09 03:00:00 19.9 13 Este 34 Sudeste 0 -- -- 46
2019-09-09 02:00:00 18.8 18 Este 33 Sudeste 0 -- -- 66
2019-09-09 01:00:00 17.5 24 Este 45 Este 0 -- -- 76
2019-09-09 00:00:00 18.2 24 Este 47 Sudeste 0 -- -- 78
2019-09-08 23:00:00 18.2 28 Este 45 Sudeste 0 -- -- 78
2019-09-08 22:00:00 17.7 25 Este 51 Este 0 -- -- 84
2019-09-08 21:00:00 17.9 20 Este 37 Este 0 -- -- 82
2019-09-08 20:00:00 18.9 16 Este 36 Este 0 -- -- 76
2019-09-08 19:00:00 19.6 20 Este 35 Este 0 -- -- 77
2019-09-08 18:00:00 20.6 18 Este 32 Este 0 -- -- 70
2019-09-08 17:00:00 22.7 10 Oeste 22 Oeste 0 -- -- 63
2019-09-08 16:00:00 22.4 13 Oeste 24 Oeste 0 -- -- 64
2019-09-08 15:00:00 22.4 10 Oeste 27 Oeste 0 -- -- 62
2019-09-08 14:00:00 21.6 13 Oeste 25 Oeste 0 -- -- 65
2019-09-08 13:00:00 21.5 13 Oeste 20 Oeste 0 -- -- 65
2019-09-08 12:00:00 21.1 12 Oeste 19 Oeste 0 -- -- 67
2019-09-08 11:00:00 21 6 Oeste 13 Oeste 0 -- -- 64
2019-09-08 10:00:00 18.1 2 Sur 5 Nordeste 0 -- -- 76
2019-09-08 09:00:00 13.2 4 Este 8 Nordeste 0 -- -- 91
2019-09-08 08:00:00 12.4 4 Este 7 Este 0 -- -- 87
2019-09-08 07:00:00 12.6 3 Este 8 Nordeste 0 -- -- 86
2019-09-08 06:00:00 13.3 3 Este 6 Este 0 -- -- 87
2019-09-08 05:00:00 13.8 3 Este 10 Este 0 -- -- 85
2019-09-08 04:00:00 15.2 4 Este 10 Este 0 -- -- 84
2019-09-08 03:00:00 15.7 3 Este 8 Este 0 -- -- 83
2019-09-08 02:00:00 16.3 4 Este 9 Este 0 -- -- 85
2019-09-08 01:00:00 16.3 4 Este 10 Este 0 -- -- 86
2019-09-08 00:00:00 16.5 0 Calma 9 Oeste 0 -- -- 85
2019-09-07 23:00:00 16.9 2 Noroeste 5 Oeste 0 -- -- 83
2019-09-07 22:00:00 17 3 Norte 8 Noroeste 0 -- -- 80
2019-09-07 21:00:00 18.1 5 Oeste 14 Oeste 0 -- -- 76
2019-09-07 20:00:00 19.5 6 Oeste 16 Oeste 0 -- -- 72
2019-09-07 19:00:00 20.6 10 Oeste 21 Noroeste 0 -- -- 69
2019-09-07 18:00:00 20.8 8 Oeste 23 Oeste 0 -- -- 70
2019-09-07 17:00:00 21.6 12 Oeste 27 Oeste 0 -- -- 67
2019-09-07 16:00:00 22.1 13 Oeste 25 Oeste 0 -- -- 63
2019-09-07 15:00:00 21.6 13 Oeste 25 Oeste 0 -- -- 65
2019-09-07 14:00:00 21.5 15 Oeste 26 Oeste 0 -- -- 67
2019-09-07 13:00:00 21.3 13 Oeste 24 Oeste 0 -- -- 68
2019-09-07 12:00:00 20.7 12 Oeste 23 Noroeste 0 -- -- 69
2019-09-07 11:00:00 19.7 9 Oeste 15 Oeste 0 -- -- 68
2019-09-07 10:00:00 16.4 3 Este 10 Este 0 -- -- 82
2019-09-07 09:00:00 14.8 6 Este 10 Sudeste 0 -- -- 89
2019-09-07 08:00:00 13.4 6 Este 10 Este 0 -- -- 85
2019-09-07 07:00:00 14.4 5 Este 10 Este 0 -- -- 87
2019-09-07 06:00:00 15 2 Este 9 Este 0 -- -- 88
2019-09-07 05:00:00 15.3 9 Este 14 Este 0 -- -- 86
2019-09-07 04:00:00 15.7 5 Este 8 Este 0 -- -- 84
2019-09-07 03:00:00 16.3 2 Nordeste 5 Este 0 -- -- 86
2019-09-07 02:00:00 15.8 3 Este 8 Este 0 -- -- 87
2019-09-07 01:00:00 16.9 3 Nordeste 8 Nordeste 0 -- -- 86
2019-09-07 00:00:00 17.4 2 Este 5 Este 0 -- -- 83
2019-09-06 23:00:00 17.9 3 Oeste 7 Oeste 0 -- -- 88
2019-09-06 22:00:00 18.2 3 Oeste 9 Oeste 0 -- -- 87
2019-09-06 21:00:00 18.4 4 Oeste 9 Oeste 0 -- -- 86
2019-09-06 20:00:00 18.8 5 Oeste 11 Oeste 0 -- -- 84
2019-09-06 19:00:00 19.3 6 Oeste 11 Oeste 0 -- -- 81
2019-09-06 18:00:00 19.9 7 Noroeste 18 Oeste 0 -- -- 79
2019-09-06 17:00:00 21.2 13 Oeste 25 Oeste 0 -- -- 73
2019-09-06 16:00:00 22.4 16 Oeste 33 Oeste 0 -- -- 67
2019-09-06 15:00:00 22.9 13 Oeste 32 Oeste 0 -- -- 63
2019-09-06 14:00:00 22.5 13 Noroeste 26 Oeste 0 -- -- 66
2019-09-06 13:00:00 22.4 12 Oeste 23 Oeste 0 -- -- 66
2019-09-06 12:00:00 21.8 8 Oeste 17 Oeste 0 -- -- 70
2019-09-06 11:00:00 20 6 Sudoeste 15 Oeste 0 -- -- 76
2019-09-06 10:00:00 19 6 Oeste 11 Oeste 0 -- -- 77
2019-09-06 09:00:00 14.5 2 Este 6 Sudeste 0 -- -- 90
2019-09-06 08:00:00 14.3 3 Norte 13 Oeste 0 -- -- 91
2019-09-06 07:00:00 13.5 2 Nordeste 9 Este 0 -- -- 90
2019-09-06 06:00:00 13.5 3 Este 6 Este 0 -- -- 89
2019-09-06 05:00:00 13.8 3 Este 9 Este 0 -- -- 91
2019-09-06 04:00:00 14.2 3 Norte 10 Sudeste 0 -- -- 90
2019-09-06 03:00:00 14.6 3 Sudeste 16 Oeste 0 -- -- 88
2019-09-06 02:00:00 15.2 6 Oeste 19 Este 0 -- -- 86
2019-09-06 01:00:00 16.4 3 Norte 13 Este 0 -- -- 85
2019-09-06 00:00:00 17.1 4 Este 12 Este 0 -- -- 76
2019-09-05 23:00:00 17.6 4 Este 6 Sudeste 0 -- -- 72
2019-09-05 22:00:00 18.3 4 Sudoeste 14 Oeste 0 -- -- 83
2019-09-05 21:00:00 18.5 3 Sudeste 12 Oeste 0 -- -- 74
2019-09-05 20:00:00 19.5 3 Sudoeste 13 Oeste 0 -- -- 79
2019-09-05 19:00:00 19.9 10 Oeste 18 Oeste 0 -- -- 76
2019-09-05 18:00:00 20.8 13 Oeste 22 Oeste 0 -- -- 71
2019-09-05 17:00:00 21.8 13 Oeste 26 Noroeste 0 -- -- 65
2019-09-05 16:00:00 22.1 14 Oeste 28 Oeste 0 -- -- 64
2019-09-05 15:00:00 22 14 Oeste 25 Oeste 0 -- -- 66
2019-09-05 14:00:00 21.7 15 Oeste 25 Oeste 0 -- -- 65
2019-09-05 13:00:00 21.4 12 Oeste 23 Oeste 0 -- -- 65
2019-09-05 12:00:00 21.3 13 Oeste 21 Oeste 0 -- -- 65
2019-09-05 11:00:00 20.6 8 Oeste 14 Oeste 0 -- -- 65
2019-09-05 10:00:00 19.2 3 Oeste 6 Oeste 0 -- -- 70
2019-09-05 09:00:00 13.9 3 Este 8 Este 0 -- -- 86
2019-09-05 08:00:00 12 3 Este 8 Este 0 -- -- 85
2019-09-05 07:00:00 12.2 4 Este 8 Nordeste 0 -- -- 83
2019-09-05 06:00:00 12.4 5 Este 8 Este 0 -- -- 87
2019-09-05 05:00:00 12.2 4 Este 9 Este 0 -- -- 88
2019-09-05 04:00:00 12.1 5 Este 11 Este 0 -- -- 84
2019-09-05 03:00:00 12.4 3 Este 7 Este 0 -- -- 84
2019-09-05 02:00:00 13.6 4 Este 6 Este 0 -- -- 87
2019-09-05 01:00:00 14 3 Este 6 Sudeste 0 -- -- 85
2019-09-05 00:00:00 15.1 3 Este 5 Sudoeste 0 -- -- 82
2019-09-04 23:00:00 16 2 Oeste 7 Sudoeste 0 -- -- 85
2019-09-04 22:00:00 17.1 4 Sudoeste 9 Sur 0 -- -- 84
2019-09-04 21:00:00 17.8 2 Sudoeste 10 Oeste 0 -- -- 74
2019-09-04 20:00:00 18.5 4 Noroeste 14 Noroeste 0 -- -- 83
2019-09-04 19:00:00 19.3 8 Oeste 16 Oeste 0 -- -- 79
2019-09-04 18:00:00 19.6 11 Oeste 19 Oeste 0 -- -- 78
2019-09-04 17:00:00 19.5 10 Oeste 23 Oeste 0 -- -- 79
2019-09-04 16:00:00 19.6 6 Oeste 15 Oeste 0 -- -- 77
2019-09-04 15:00:00 19.8 10 Oeste 18 Oeste 0 -- -- 75
2019-09-04 14:00:00 21.5 9 Oeste 24 Oeste 0 -- -- 69
2019-09-04 13:00:00 21.9 13 Oeste 21 Oeste 0 -- -- 66
2019-09-04 12:00:00 20.9 10 Sudeste 23 Sudeste 0 -- -- 63
2019-09-04 11:00:00 19.8 15 Este 24 Sudeste 0 -- -- 66
2019-09-04 10:00:00 19.3 3 Este 8 Este 0 -- -- 61
2019-09-04 09:00:00 13.6 4 Este 9 Este 0 -- -- 77
2019-09-04 08:00:00 12.2 3 Este 9 Nordeste 0 -- -- 80
2019-09-04 07:00:00 12 5 Este 8 Este 0 -- -- 80
2019-09-04 06:00:00 12.5 5 Este 10 Este 0 -- -- 81
2019-09-04 05:00:00 12.6 5 Este 9 Nordeste 0 -- -- 84
2019-09-04 04:00:00 12.9 3 Este 9 Este 0 -- -- 82
2019-09-04 03:00:00 13.1 4 Sudeste 10 Nordeste 0 -- -- 84
2019-09-04 02:00:00 13.2 5 Este 7 Este 0 -- -- 83
2019-09-04 01:00:00 13.8 4 Este 7 Nordeste 0 -- -- 83
2019-09-04 00:00:00 13.8 6 Este 9 Este 0 -- -- 80
2019-09-03 23:00:00 14.4 4 Este 9 Este 0 -- -- 79
2019-09-03 22:00:00 16.6 0 Calma 7 Noroeste 0 -- -- 85
2019-09-03 21:00:00 18.1 4 Oeste 9 Oeste 0 -- -- 81
2019-09-03 20:00:00 19 3 Oeste 14 Oeste 0 -- -- 77
2019-09-03 19:00:00 19.1 6 Este 31 Sudeste 0 -- -- 65
2019-09-03 18:00:00 20 5 Noroeste 25 Este 0 -- -- 64
2019-09-03 17:00:00 20.3 8 Oeste 20 Noroeste 0 -- -- 73
2019-09-03 16:00:00 21.4 8 Oeste 23 Oeste 0 -- -- 69
2019-09-03 15:00:00 20.8 13 Oeste 23 Oeste 0 -- -- 70
2019-09-03 14:00:00 21.1 14 Oeste 25 Oeste 0 -- -- 69
2019-09-03 13:00:00 20.7 13 Oeste 23 Oeste 0 -- -- 71
2019-09-03 12:00:00 21.5 13 Oeste 19 Oeste 0 -- -- 67
2019-09-03 11:00:00 21.1 8 Oeste 18 Oeste 0 -- -- 64
2019-09-03 10:00:00 19.5 3 Oeste 8 Oeste 0 -- -- 61
2019-09-03 09:00:00 13.1 3 Este 8 Este 0 -- -- 77
2019-09-03 08:00:00 11.8 4 Este 8 Nordeste 0 -- -- 80
2019-09-03 07:00:00 12.2 4 Este 8 Este 0 -- -- 83
2019-09-03 06:00:00 12.2 5 Este 8 Nordeste 0 -- -- 81
2019-09-03 05:00:00 12.3 0 Calma 8 Este 0 -- -- 80
2019-09-03 04:00:00 12.7 2 Este 9 Este 0 -- -- 86
2019-09-03 03:00:00 12.8 4 Este 9 Este 0 -- -- 81
2019-09-03 02:00:00 12.9 0 Calma 7 Este 0 -- -- 78
2019-09-03 01:00:00 13.4 4 Este 8 Este 0 -- -- 74
2019-09-03 00:00:00 14.3 3 Este 5 Este 0 -- -- 71
2019-09-02 23:00:00 15.5 3 Este 5 Nordeste 0 -- -- 81
2019-09-02 22:00:00 17.1 0 Calma 9 Oeste 0 -- -- 80
2019-09-02 21:00:00 18.4 3 Oeste 13 Oeste 0 -- -- 75
2019-09-02 20:00:00 20.4 6 Oeste 18 Oeste 0 -- -- 67
2019-09-02 19:00:00 21.3 9 Oeste 23 Oeste 0 -- -- 63
2019-09-02 18:00:00 21.9 10 Oeste 31 Oeste 0 -- -- 62
2019-09-02 17:00:00 22 13 Oeste 30 Oeste 0 -- -- 62
2019-09-02 16:00:00 21.4 13 Oeste 35 Sudeste 0 -- -- 66
2019-09-02 15:00:00 20.4 23 Sudeste 37 Sudeste 0 -- -- 67
2019-09-02 14:00:00 20.5 20 Este 34 Este 0 -- -- 69
2019-09-02 13:00:00 21 17 Este 33 Este 0 -- -- 63
2019-09-02 12:00:00 22.2 6 Sudoeste 27 Este 0 -- -- 58
2019-09-02 11:00:00 20.1 15 Este 26 Este 0 -- -- 61
2019-09-02 10:00:00 18.7 13 Sudeste 26 Este 0 -- -- 65
2019-09-02 09:00:00 15.9 8 Sudeste 24 Este 0 -- -- 70
2019-09-02 08:00:00 14.6 4 Este 23 Sudeste 0 -- -- 72
2019-09-02 07:00:00 15.7 12 Este 26 Este 0 -- -- 74
2019-09-02 06:00:00 15.5 14 Este 25 Este 0 -- -- 73
2019-09-02 05:00:00 16.1 13 Este 33 Este 0 -- -- 73
2019-09-02 04:00:00 16.2 21 Este 35 Sudeste 0 -- -- 73
2019-09-02 03:00:00 16.7 19 Este 32 Este 0 -- -- 70
2019-09-02 02:00:00 16.9 19 Este 29 Este 0 -- -- 71
2019-09-02 01:00:00 17.2 15 Este 25 Este 0 -- -- 63
2019-09-02 00:00:00 16.2 3 Sudeste 9 Sudoeste 0 -- -- 75
2019-09-01 23:00:00 17 3 Este 8 Sur 0 -- -- 63
2019-09-01 22:00:00 18.4 2 Este 6 Oeste 0 -- -- 71
2019-09-01 21:00:00 20.2 0 Calma 13 Oeste 0 -- -- 74
2019-09-01 20:00:00 22.7 4 Oeste 15 Oeste 0 -- -- 65
2019-09-01 19:00:00 23.2 9 Oeste 22 Este 0 -- -- 63
2019-09-01 18:00:00 22.8 10 Sudeste 21 Este 0 -- -- 61
2019-09-01 17:00:00 23.4 11 Oeste 23 Oeste 0 -- -- 61
2019-09-01 16:00:00 24.5 15 Oeste 23 Oeste 0 -- -- 58
2019-09-01 15:00:00 25.8 12 Oeste 24 Oeste 0 -- -- 52
2019-09-01 14:00:00 27.6 10 Sudeste 26 Este 0 -- -- 47
2019-09-01 13:00:00 25.8 14 Oeste 30 Sudeste 0 -- -- 52
2019-09-01 12:00:00 26.4 9 Oeste 20 Oeste 0 -- -- 47
2019-09-01 11:00:00 26.7 8 Sudeste 20 Este 0 -- -- 38
2019-09-01 10:00:00 26.8 9 Noroeste 16 Oeste 0 -- -- 32
2019-09-01 09:00:00 23.8 4 Sudeste 18 Sudeste 0 -- -- 25
2019-09-01 08:00:00 20.4 5 Este 16 Sudeste 0 -- -- 25
2019-09-01 07:00:00 21.7 0 Calma 21 Este 0 -- -- 26
2019-09-01 06:00:00 23.4 9 Este 25 Este 0 -- -- 24
2019-09-01 05:00:00 23.5 12 Sudeste 21 Este 0 -- -- 25
2019-09-01 04:00:00 23.8 10 Este 25 Este 0 -- -- 24
2019-09-01 03:00:00 24.3 10 Sudeste 18 Este 0 -- -- 23
2019-09-01 02:00:00 24.6 6 Este 13 Este 0 -- -- 23
2019-09-01 01:00:00 24.4 6 Este 20 Este 0 -- -- 25
2019-09-01 00:00:00 25.1 6 Este 23 Sudeste 0 -- -- 23
2019-08-31 23:00:00 24.8 12 Sudeste 21 Este 0 -- -- 23
2019-08-31 22:00:00 25.5 13 Sudeste 21 Este 0 -- -- 21
2019-08-31 21:00:00 25.9 2 Norte 9 Oeste 0 -- -- 28
2019-08-31 20:00:00 28.3 8 Oeste 13 Oeste 0 -- -- 24
2019-08-31 19:00:00 28.4 8 Oeste 18 Oeste 0 -- -- 27
2019-08-31 18:00:00 28.2 10 Oeste 18 Oeste 0 -- -- 36
2019-08-31 17:00:00 28.1 12 Oeste 21 Oeste 0 -- -- 50
2019-08-31 16:00:00 30.1 14 Oeste 25 Sur 0 -- -- 32
2019-08-31 15:00:00 30.9 12 Oeste 22 Oeste 0 -- -- 26
2019-08-31 14:00:00 29.7 13 Oeste 21 Oeste 0 -- -- 44
2019-08-31 13:00:00 29 13 Oeste 19 Oeste 0 -- -- 48
2019-08-31 12:00:00 31.2 12 Oeste 17 Oeste 0 -- -- 38
2019-08-31 11:00:00 31 9 Oeste 14 Este 0 -- -- 20
2019-08-31 10:00:00 29.9 2 Nordeste 20 Este 0 -- -- 20
2019-08-31 09:00:00 24.3 5 Este 9 Este 0 -- -- 26
2019-08-31 08:00:00 22.3 5 Este 9 Nordeste 0 -- -- 27
2019-08-31 07:00:00 23 6 Este 19 Sudeste 0 -- -- 26
2019-08-31 06:00:00 22.8 6 Este 12 Este 0 -- -- 26
2019-08-31 05:00:00 21.7 4 Este 9 Este 0 -- -- 28
2019-08-31 04:00:00 22.1 5 Este 12 Nordeste 0 -- -- 28
2019-08-31 03:00:00 21.7 4 Este 9 Este 0 -- -- 30
2019-08-31 02:00:00 21.6 5 Este 9 Este 0 -- -- 30
2019-08-31 01:00:00 22.2 5 Este 10 Este 0 -- -- 29
2019-08-31 00:00:00 23 5 Este 8 Este 0 -- -- 28
2019-08-30 23:00:00 23.6 4 Este 9 Este 0 -- -- 27
2019-08-30 22:00:00 24 5 Este 10 Este 0 -- -- 28
2019-08-30 21:00:00 26.1 4 Este 9 Oeste 0 -- -- 29
2019-08-30 20:00:00 29.4 6 Oeste 12 Oeste 0 -- -- 29
2019-08-30 19:00:00 30.1 5 Oeste 18 Oeste 0 -- -- 28
2019-08-30 18:00:00 30.7 9 Oeste 19 Oeste 0 -- -- 26
2019-08-30 17:00:00 30.7 12 Oeste 19 Oeste 0 -- -- 29
2019-08-30 16:00:00 29.9 13 Oeste 25 Oeste 0 -- -- 28
2019-08-30 15:00:00 29.4 14 Oeste 24 Oeste 0 -- -- 33
2019-08-30 14:00:00 28.3 14 Oeste 22 Oeste 0 -- -- 37
2019-08-30 13:00:00 27.6 12 Oeste 22 Oeste 0 -- -- 43
2019-08-30 12:00:00 26.5 10 Oeste 22 Oeste 0 -- -- 54
2019-08-30 11:00:00 28.3 14 Oeste 21 Oeste 0 -- -- 39
2019-08-30 10:00:00 27.6 9 Sudeste 23 Sudeste 0 -- -- 33
2019-08-30 09:00:00 20.4 2 Sudeste 6 Oeste 0 -- -- 41
2019-08-30 08:00:00 20.1 4 Este 8 Nordeste 0 -- -- 34
2019-08-30 07:00:00 21.2 4 Este 9 Este 0 -- -- 33
2019-08-30 06:00:00 20.5 8 Este 10 Este 0 -- -- 35
2019-08-30 05:00:00 20.1 7 Este 10 Este 0 -- -- 36
2019-08-30 04:00:00 20.9 6 Este 11 Nordeste 0 -- -- 32
2019-08-30 03:00:00 20.8 5 Sudeste 10 Este 0 -- -- 33
2019-08-30 02:00:00 20.9 3 Este 10 Este 0 -- -- 33
2019-08-30 01:00:00 21.2 6 Este 10 Este 0 -- -- 33
2019-08-30 00:00:00 21.8 7 Este 11 Este 0 -- -- 33
2019-08-29 23:00:00 23.1 6 Este 12 Este 0 -- -- 31
2019-08-29 22:00:00 23.9 6 Este 11 Nordeste 0 -- -- 31
2019-08-29 21:00:00 25.9 5 Este 8 Este 0 -- -- 31
2019-08-29 20:00:00 28.4 3 Oeste 12 Oeste 0 -- -- 26
2019-08-29 19:00:00 28.8 6 Noroeste 13 Oeste 0 -- -- 32
2019-08-29 18:00:00 29.4 11 Oeste 18 Oeste 0 -- -- 46
2019-08-29 17:00:00 28.4 6 Noroeste 22 Oeste 0 -- -- 40
2019-08-29 16:00:00 29.3 14 Oeste 24 Sudeste 0 -- -- 41
2019-08-29 15:00:00 29.7 13 Oeste 30 Este 0 -- -- 42
2019-08-29 14:00:00 30.6 20 Sudeste 48 Sudeste 0 -- -- 25
2019-08-29 13:00:00 28.5 12 Oeste 19 Oeste 0 -- -- 43
2019-08-29 12:00:00 27.8 12 Oeste 22 Oeste 0 -- -- 36
2019-08-29 11:00:00 30.6 9 Norte 20 Este 0 -- -- 25
2019-08-29 10:00:00 26.7 3 Oeste 6 Oeste 0 -- -- 29
2019-08-29 09:00:00 21.6 4 Sudeste 13 Este 0 -- -- 36
2019-08-29 08:00:00 18.9 6 Este 9 Este 0 -- -- 37
2019-08-29 07:00:00 19.1 5 Este 8 Este 0 -- -- 38
2019-08-29 06:00:00 18.5 5 Este 8 Este 0 -- -- 39
2019-08-29 05:00:00 18.4 6 Este 9 Este 0 -- -- 41
2019-08-29 04:00:00 18.6 5 Sudeste 9 Este 0 -- -- 44
2019-08-29 03:00:00 19 2 Este 7 Este 0 -- -- 47
2019-08-29 02:00:00 19.4 4 Este 8 Sur 0 -- -- 46
2019-08-29 01:00:00 19.9 4 Este 7 Este 0 -- -- 45
2019-08-29 00:00:00 19.8 3 Este 9 Este 0 -- -- 43
2019-08-28 23:00:00 19.4 3 Este 8 Este 0 -- -- 55
2019-08-28 22:00:00 19.3 4 Este 12 Oeste 0 -- -- 80
2019-08-28 21:00:00 22 4 Oeste 9 Oeste 0 -- -- 70
2019-08-28 20:00:00 24.3 4 Oeste 12 Oeste 0 -- -- 62
2019-08-28 19:00:00 24.6 8 Oeste 17 Oeste 0 -- -- 60
2019-08-28 18:00:00 25.7 10 Oeste 18 Oeste 0 -- -- 55
2019-08-28 17:00:00 25.6 12 Oeste 23 Oeste 0 -- -- 56
2019-08-28 16:00:00 25.7 9 Oeste 21 Oeste 0 -- -- 57
2019-08-28 15:00:00 25.2 12 Oeste 22 Oeste 0 -- -- 59
2019-08-28 14:00:00 25.6 10 Oeste 21 Oeste 0 -- -- 59
2019-08-28 13:00:00 25.1 10 Oeste 20 Oeste 0 -- -- 58
2019-08-28 12:00:00 25.4 9 Oeste 19 Oeste 0 -- -- 55
2019-08-28 11:00:00 25.5 9 Oeste 15 Oeste 0 -- -- 53
2019-08-28 10:00:00 27.5 5 Sudoeste 10 Oeste 0 -- -- 31
2019-08-28 09:00:00 22.2 0 Calma 6 Este 0 -- -- 36
2019-08-28 08:00:00 20.2 4 Este 8 Este 0 -- -- 37
2019-08-28 07:00:00 19.8 5 Sudeste 10 Este 0 -- -- 36
2019-08-28 06:00:00 19 5 Este 9 Este 0 -- -- 37
2019-08-28 05:00:00 18.6 4 Sudeste 8 Este 0 -- -- 36
2019-08-28 04:00:00 18.9 0 Calma 9 Este 0 -- -- 38
2019-08-28 03:00:00 19.2 2 Nordeste 11 Este 0 -- -- 38
2019-08-28 02:00:00 19.9 3 Este 9 Este 0 -- -- 36
2019-08-28 01:00:00 20 6 Este 9 Este 0 -- -- 39
2019-08-28 00:00:00 20.6 2 Sudeste 6 Este 0 -- -- 42
2019-08-27 23:00:00 20.8 4 Este 8 Este 0 -- -- 43
2019-08-27 22:00:00 22.3 0 Calma 6 Este 0 -- -- 43
2019-08-27 21:00:00 23.7 3 Nordeste 10 Oeste 0 -- -- 53
2019-08-27 20:00:00 26.6 8 Oeste 13 Oeste 0 -- -- 45
2019-08-27 19:00:00 27.1 7 Oeste 18 Oeste 0 -- -- 31
2019-08-27 18:00:00 28.6 11 Oeste 21 Oeste 0 -- -- 42
2019-08-27 17:00:00 28.2 12 Oeste 20 Oeste 0 -- -- 36
2019-08-27 16:00:00 28.3 12 Oeste 22 Oeste 0 -- -- 40
2019-08-27 15:00:00 28.3 13 Oeste 21 Oeste 0 -- -- 42
2019-08-27 14:00:00 28 15 Oeste 20 Oeste 0 -- -- 49
2019-08-27 13:00:00 28 9 Oeste 19 Oeste 0 -- -- 53
2019-08-27 12:00:00 28.7 11 Oeste 17 Oeste 0 -- -- 41
2019-08-27 11:00:00 29.7 9 Oeste 14 Oeste 0 -- -- 32
2019-08-27 10:00:00 28.5 3 Sudeste 12 Sudeste 0 -- -- 23
2019-08-27 09:00:00 22.1 3 Este 8 Este 0 -- -- 34
2019-08-27 08:00:00 20.3 4 Sudeste 9 Este 0 -- -- 34
2019-08-27 07:00:00 19.8 5 Este 8 Este 0 -- -- 32
2019-08-27 06:00:00 20.5 5 Este 8 Este 0 -- -- 35
2019-08-27 05:00:00 21 4 Este 9 Este 0 -- -- 34
2019-08-27 04:00:00 22.1 5 Este 13 Sudeste 0 -- -- 29
2019-08-27 03:00:00 23.3 6 Este 21 Sudeste 0 -- -- 31
2019-08-27 02:00:00 24.2 13 Sudeste 21 Sudeste 0 -- -- 20
2019-08-27 01:00:00 23 4 Este 8 Este 0 -- -- 36
2019-08-27 00:00:00 24.3 3 Este 21 Este 0 -- -- 37
2019-08-26 23:00:00 25.8 3 Nordeste 34 Sudeste 0 -- -- 32
2019-08-26 22:00:00 26.3 22 Este 37 Este 0 -- -- 26
2019-08-26 21:00:00 26.5 14 Este 26 Sudeste 0 -- -- 25
2019-08-26 20:00:00 27.8 12 Sudeste 20 Sudeste 0 -- -- 28
2019-08-26 19:00:00 29.8 6 Oeste 12 Oeste 0 -- -- 40
2019-08-26 18:00:00 30.1 8 Oeste 22 Oeste 0 -- -- 46
2019-08-26 17:00:00 30.9 9 Oeste 28 Oeste 0 -- -- 38
2019-08-26 16:00:00 31.8 14 Oeste 23 Oeste 0 -- -- 31
2019-08-26 15:00:00 32.2 14 Oeste 29 Oeste 0 -- -- 29
2019-08-26 14:00:00 32.3 14 Oeste 25 Oeste 0 -- -- 28
2019-08-26 13:00:00 33 17 Oeste 26 Oeste 0 -- -- 27
2019-08-26 12:00:00 31.5 13 Sudeste 33 Sudeste 0 -- -- 24
2019-08-26 11:00:00 31.7 21 Este 33 Este 0 -- -- 23
2019-08-26 10:00:00 31.9 8 Sudeste 14 Sudeste 0 -- -- 26
2019-08-26 09:00:00 27.7 11 Sudeste 30 Sudeste 0 -- -- 24
2019-08-26 08:00:00 27.2 17 Sudeste 27 Sudeste 0 -- -- 22
2019-08-26 07:00:00 26.3 14 Sudeste 37 Sudeste 0 -- -- 19
2019-08-26 06:00:00 24.4 22 Sudeste 41 Sudeste 0 -- -- 28
2019-08-26 05:00:00 24.2 22 Este 42 Este 0 -- -- 29
2019-08-26 04:00:00 23.9 23 Este 48 Sudeste 0 -- -- 32
2019-08-26 03:00:00 24.2 28 Este 41 Este 0 -- -- 31
2019-08-26 02:00:00 25.5 19 Sudeste 37 Este 0 -- -- 29
2019-08-26 01:00:00 25.2 18 Este 43 Este 0 -- -- 30
2019-08-26 00:00:00 25.6 28 Este 39 Este 0 -- -- 31
2019-08-25 23:00:00 29.2 21 Este 37 Este 0 -- -- 24
2019-08-25 22:00:00 29.8 21 Este 38 Este 0 -- -- 23
2019-08-25 21:00:00 30.3 23 Este 41 Este 0 -- -- 22
2019-08-25 20:00:00 29.7 26 Este 47 Este 0 -- -- 22
2019-08-25 19:00:00 30.5 28 Este 55 Este 0 -- -- 18
2019-08-25 18:00:00 31 34 Este 53 Este 0 -- -- 14
2019-08-25 17:00:00 34.7 25 Este 54 Este 0 -- -- 16
2019-08-25 16:00:00 36.5 23 Este 44 Nordeste 0 -- -- 16
2019-08-25 15:00:00 35.5 22 Este 45 Este 0 -- -- 16
2019-08-25 14:00:00 35 30 Este 47 Sudeste 0 -- -- 14
2019-08-25 13:00:00 34.8 28 Este 52 Este 0 -- -- 14
2019-08-25 12:00:00 34.5 27 Este 51 Este 0 -- -- 14
2019-08-25 11:00:00 33.9 17 Este 48 Sudeste 0 -- -- 15
2019-08-25 10:00:00 32.3 18 Este 49 Este 0 -- -- 16
2019-08-25 09:00:00 29.9 17 Este 54 Sudeste 0 -- -- 14
2019-08-25 08:00:00 28 29 Este 64 Este 0 -- -- 14
2019-08-25 07:00:00 27.4 40 Este 62 Este 0 -- -- 16
2019-08-25 06:00:00 27.2 36 Este 61 Este 0 -- -- 17
2019-08-25 05:00:00 26.9 40 Este 56 Este 0 -- -- 19
2019-08-25 04:00:00 27.2 32 Este 56 Este 0 -- -- 19
2019-08-25 03:00:00 27.1 36 Este 60 Este 0 -- -- 19
2019-08-25 02:00:00 28.9 32 Este 52 Este 0 -- -- 20
2019-08-25 01:00:00 31 28 Este 57 Este 0 -- -- 20
2019-08-25 00:00:00 31.9 24 Este 53 Este 0 -- -- 19
2019-08-24 23:00:00 31.3 26 Este 51 Este 0 -- -- 19
2019-08-24 22:00:00 31.9 22 Este 50 Este 0 -- -- 19
2019-08-24 21:00:00 31.6 26 Este 45 Este 0 -- -- 20
2019-08-24 20:00:00 32.5 19 Este 42 Este 0 -- -- 19
2019-08-24 19:00:00 33 20 Este 41 Este 0 -- -- 21
2019-08-24 18:00:00 33.4 24 Este 40 Este 0 -- -- 21
2019-08-24 17:00:00 35.3 10 Sudeste 26 Sudeste 0 -- -- 21
2019-08-24 16:00:00 37.5 6 Noroeste 30 Sudeste 0 -- -- 19
2019-08-24 15:00:00 36.9 17 Este 31 Este 0 -- -- 20
2019-08-24 14:00:00 36.5 21 Este 41 Este 0 -- -- 20
2019-08-24 13:00:00 34.9 23 Este 46 Sudeste 0 -- -- 21
2019-08-24 12:00:00 34 27 Este 41 Este 0 -- -- 20
2019-08-24 11:00:00 34.7 22 Este 41 Este 0 -- -- 20
2019-08-24 10:00:00 32.8 23 Este 42 Este 0 -- -- 20
2019-08-24 09:00:00 30.3 22 Este 53 Este 0 -- -- 20
2019-08-24 08:00:00 27.9 33 Este 54 Este 0 -- -- 27
2019-08-24 07:00:00 26.2 11 Este 32 Sudeste 0 -- -- 20
2019-08-24 06:00:00 27.2 17 Este 34 Este 0 -- -- 23
2019-08-24 05:00:00 28.8 20 Este 40 Este 0 -- -- 21
2019-08-24 04:00:00 28.2 17 Este 36 Este 0 -- -- 24
2019-08-24 03:00:00 28.9 15 Sudeste 24 Sudeste 0 -- -- 19
2019-08-24 02:00:00 29.4 10 Sudeste 26 Sudeste 0 -- -- 19
2019-08-24 01:00:00 30.3 12 Sudeste 27 Sudeste 0 -- -- 18
2019-08-24 00:00:00 30.4 12 Sudeste 20 Sudeste 0 -- -- 18
2019-08-23 23:00:00 28.6 6 Sudeste 12 Sudeste 0 -- -- 17
2019-08-23 22:00:00 26.9 4 Nordeste 10 Sudeste 0 -- -- 31
2019-08-23 21:00:00 28.7 5 Nordeste 18 Sudeste 0 -- -- 29
2019-08-23 20:00:00 30.2 10 Oeste 17 Oeste 0 -- -- 34
2019-08-23 19:00:00 31.4 7 Oeste 27 Oeste 0 -- -- 40
2019-08-23 18:00:00 33.3 14 Oeste 27 Oeste 0 -- -- 35
2019-08-23 17:00:00 33.7 11 Oeste 21 Oeste 0 -- -- 30
2019-08-23 16:00:00 32.8 10 Oeste 22 Oeste 0 -- -- 30
2019-08-23 15:00:00 32.5 12 Oeste 33 Oeste 0 -- -- 30
2019-08-23 14:00:00 34.4 18 Este 33 Sudeste 0 -- -- 21
2019-08-23 13:00:00 32.9 21 Este 46 Este 0 -- -- 23
2019-08-23 12:00:00 31.9 12 Este 27 Este 0 -- -- 25
2019-08-23 11:00:00 28.9 6 Oeste 15 Oeste 0 -- -- 28
2019-08-23 10:00:00 26.1 3 Nordeste 14 Sudeste 0 -- -- 28
2019-08-23 09:00:00 25.7 5 Este 27 Sudeste 0 -- -- 26
2019-08-23 08:00:00 24.8 11 Este 23 Sudeste 0 -- -- 24
2019-08-23 07:00:00 25 11 Sudeste 19 Sudeste 0 -- -- 28
2019-08-23 06:00:00 24.7 15 Sudeste 31 Sudeste 0 -- -- 29
2019-08-23 05:00:00 24.1 17 Sudeste 28 Este 0 -- -- 30
2019-08-23 04:00:00 21.8 5 Este 10 Este 0 -- -- 31
2019-08-23 03:00:00 21.3 6 Este 10 Este 0 -- -- 30
2019-08-23 02:00:00 21.5 5 Sudeste 9 Este 0 -- -- 30
2019-08-23 01:00:00 22.1 3 Este 7 Este 0 -- -- 33
2019-08-23 00:00:00 23.1 5 Este 13 Nordeste 0 -- -- 38
2019-08-22 23:00:00 23.7 6 Este 16 Nordeste 0 -- -- 39
2019-08-22 22:00:00 26.1 15 Este 42 Este 0 -- -- 32
2019-08-22 21:00:00 26.1 20 Este 42 Este 0 -- -- 35
2019-08-22 20:00:00 27.5 19 Este 45 Este 0 -- -- 33
2019-08-22 19:00:00 28.6 22 Este 44 Este 0 -- -- 33
2019-08-22 18:00:00 27.8 13 Oeste 26 Este 0 -- -- 52
2019-08-22 17:00:00 30.4 13 Noroeste 44 Este 0 -- -- 44
2019-08-22 16:00:00 30.2 27 Este 46 Este 0 -- -- 29
2019-08-22 15:00:00 30.8 14 Este 49 Sudeste 0 -- -- 32
2019-08-22 14:00:00 31.1 21 Este 47 Este 0 -- -- 29
2019-08-22 13:00:00 30 28 Este 50 Este 0 -- -- 32
2019-08-22 12:00:00 29.2 27 Este 45 Este 0 -- -- 34
2019-08-22 11:00:00 29 18 Este 48 Este 0 -- -- 34
2019-08-22 10:00:00 27 24 Este 48 Este 0 -- -- 36
2019-08-22 09:00:00 25.4 27 Este 44 Este 0 -- -- 36
2019-08-22 08:00:00 24.8 18 Este 43 Este 0 -- -- 35
2019-08-22 07:00:00 24.3 22 Este 46 Este 0 -- -- 27
2019-08-22 06:00:00 24.1 13 Este 40 Nordeste 0 -- -- 16
2019-08-22 05:00:00 25.1 25 Este 49 Este 0 -- -- 12
2019-08-22 04:00:00 25.5 25 Este 50 Sudeste 0 -- -- 12
2019-08-22 03:00:00 25 35 Este 72 Este 0 -- -- 12
2019-08-22 02:00:00 25.2 36 Este 63 Este 0 -- -- 9
2019-08-22 01:00:00 24.7 35 Este 69 Este 0 -- -- 9
2019-08-22 00:00:00 24.4 39 Este 71 Este 0 -- -- 12
2019-08-21 23:00:00 24.9 38 Este 84 Este 0 -- -- 12
2019-08-21 22:00:00 24.1 35 Este 65 Este 0 -- -- 15
2019-08-21 21:00:00 23.8 34 Este 64 Este 0 -- -- 15
2019-08-21 20:00:00 24.5 27 Este 57 Este 0 -- -- 30
2019-08-21 19:00:00 24.5 21 Este 52 Este 0 -- -- 44
2019-08-21 18:00:00 23 32 Este 58 Este 0 -- -- 59
2019-08-21 17:00:00 22.9 37 Este 72 Este 0 -- -- 60
2019-08-21 16:00:00 26.2 13 Nordeste 54 Este 0 -- -- 57
2019-08-21 15:00:00 24.9 32 Este 62 Este 0 -- -- 54
2019-08-21 14:00:00 22.2 33 Sudeste 62 Este 0 -- -- 67
2019-08-21 13:00:00 24.4 35 Este 58 Este 0 -- -- 55
2019-08-21 12:00:00 23.9 30 Este 58 Este 0 -- -- 57
2019-08-21 11:00:00 22 30 Sudeste 55 Este 0 -- -- 62
2019-08-21 10:00:00 20.3 32 Este 53 Este 0 -- -- 70
2019-08-21 09:00:00 18.3 33 Sudeste 59 Este 0 -- -- 78
2019-08-21 08:00:00 19.8 30 Este 56 Sudeste 0 -- -- 66
2019-08-21 07:00:00 20.1 26 Sudeste 52 Sudeste 0 -- -- 62
2019-08-21 06:00:00 18.9 34 Sudeste 55 Sudeste 0 -- -- 71
2019-08-21 05:00:00 20.5 31 Sudeste 57 Este 0 -- -- 60
2019-08-21 04:00:00 20.7 32 Este 56 Sudeste 0 -- -- 51
2019-08-21 03:00:00 21 36 Este 53 Sudeste 0 -- -- 55
2019-08-21 02:00:00 21.9 33 Este 56 Este 0 -- -- 42
2019-08-21 01:00:00 22.3 23 Este 40 Este 0 -- -- 38
2019-08-21 00:00:00 22.4 14 Este 31 Este 0 -- -- 37